This is the latest recevied weather packets stored in our database for station/object VK3BKO-13. If no packets are shown the sender has not sent any weather packets the latest 1 day(s).
| Time | Temp. | Humidity | Pressure | Rain* | Wind** | Luminosity | Snow |
|---|---|---|---|---|---|---|---|
| 1778074324 | 10° C | 68% | 1017 hPa | 0 mm | - | 0 W/m² | - |
| 1778073425 | 10° C | 67% | 1017 hPa | 0 mm | - | 0 W/m² | - |
| 1778068024 | 10.56° C | 83% | 1016.6 hPa | 0 mm | - | 0 W/m² | - |
| 1778066224 | 10.56° C | 88% | 1016.3 hPa | 0 mm | - | 0 W/m² | - |
| 1778064424 | 10° C | 92% | 1016.3 hPa | 5.59 mm | - | 0 W/m² | - |
| 1778061724 | 11.67° C | 90% | 1015.3 hPa | 0.25 mm | - | 0 W/m² | - |
| 1778060824 | 11.67° C | 91% | 1014.9 hPa | 1.02 mm | - | 0 W/m² | - |
| 1778059924 | 12.78° C | 91% | 1014.6 hPa | 0 mm | - | 0 W/m² | - |
| 1778058124 | 12.78° C | 90% | 1014.3 hPa | 0 mm | - | 0 W/m² | - |
| 1778057224 | 12.78° C | 90% | 1014.3 hPa | 6.86 mm | - | 0 W/m² | - |
| 1778050024 | 16.67° C | 61% | 1013.6 hPa | 0 mm | - | 18 W/m² | - |
| 1778049124 | 16.67° C | 60% | 1013.6 hPa | 0 mm | - | 37 W/m² | - |
| 1778044623 | 18.89° C | 52% | 1014.6 hPa | 0 mm | - | 185 W/m² | - |
| 1778043724 | 18.89° C | 52% | 1014.6 hPa | 0 mm | - | 138 W/m² | - |
| 1778042824 | 18.89° C | 53% | 1015.3 hPa | 0 mm | - | 164 W/m² | - |
| 1778041924 | 18.89° C | 53% | 1015.3 hPa | 0 mm | - | 345 W/m² | - |
| 1778041024 | 17.78° C | 56% | 1015.6 hPa | 0 mm | - | 423 W/m² | - |
| 1778038324 | 18.33° C | 55% | 1016.3 hPa | 0 mm | - | 523 W/m² | - |
| 1778037424 | 17.78° C | 59% | 1016.6 hPa | 0 mm | - | 526 W/m² | - |
| 1778035624 | 17.78° C | 56% | 1017 hPa | 0 mm | - | 179 W/m² | - |
| 1778034724 | 18.33° C | 54% | 1017.3 hPa | 0 mm | - | 580 W/m² | - |
| 1778032024 | 16.67° C | 60% | 1018.3 hPa | 0 mm | - | 191 W/m² | - |
| 1778031124 | 15.56° C | 60% | 1018.7 hPa | 0 mm | - | 116 W/m² | - |
| 1778028424 | 15.56° C | 60% | 1019 hPa | 0 mm | - | 138 W/m² | - |
| 1778027525 | 15.56° C | 61% | 1019.3 hPa | 0 mm | - | 162 W/m² | - |
* Rain latest hour (hover to see other rain measurements)
** Current wind speed in m/s (hover to see current wind gust speed)